H1 CPF 2 NER 2021 12 11 9 345 01 glonass133 H2 1403201 9133 40001 2021 12 11 0 0 0 2021 12 14 23 45 0 900 1 1 0 0 0 1 H9 10 0 59559 0.00000 0 -3282030.650 -16575884.520 -19114299.672 10 0 59559 900.00000 0 -2736001.768 -18749503.949 -17087369.529 10 0 59559 1800.00000 0 -2419370.845 -20696131.281 -14728810.796 10 0 59559 2700.00000 0 -2303313.305 -22358134.626 -12084455.540 10 0 59559 3600.00000 0 -2348968.331 -23686642.729 -9205657.806 10 0 59559 4500.00000 0 -2509307.074 -24643475.186 -6148296.896 10 0 59559 5400.00000 0 -2731348.933 -25202642.528 -2971694.278 10 0 59559 6300.00000 0 -2958631.778 -25351354.213 262535.007 10 0 59559 7200.00000 0 -3133831.485 -25090493.092 3491674.189 10 0 59559 8100.00000 0 -3201419.971 -24434537.095 6653116.881 10 0 59559 9000.00000 0 -3110249.395 -23410931.945 9685576.169 10 0 59559 9900.00000 0 -2815953.382 -22058941.504 12530267.368 10 0 59559 10800.00000 0 -2283063.861 -20428023.998 15132041.921 10 0 59559 11700.00000 0 -1486754.006 -18575801.979 17440450.898 10 0 59559 12600.00000 0 -414133.456 -16565710.624 19410717.957 10 0 59559 13500.00000 0 934959.442 -14464422.100 21004603.536 10 0 59559 14400.00000 0 2547702.720 -12339152.837 22191144.110 10 0 59559 15300.00000 0 4398585.294 -10254965.290 22947252.606 10 0 59559 16200.00000 0 6450240.249 -8272175.839 23258168.699 10 0 59559 17100.00000 0 8654784.014 -6443976.055 23117750.333 10 0 59559 18000.00000 0 10955607.422 -4814365.818 22528600.570 10 0 59559 18900.00000 0 13289545.864 -3416483.875 21502026.826 10 0 59559 19800.00000 0 15589339.799 -2271405.069 20057832.480 10 0 59559 20700.00000 0 17786284.305 -1387454.328 18223943.905 10 0 59559 21600.00000 0 19812958.177 -760065.908 16035879.066 10 0 59559 22500.00000 0 21605919.133 -372193.769 13536066.839 10 0 59559 23400.00000 0 23108252.457 -195255.813 10773029.383 10 0 59559 24300.00000 0 24271866.123 -190572.056 7800442.675 10 0 59559 25200.00000 0 25059435.512 -311235.803 4676093.099 10 0 59559 26100.00000 0 25445915.270 -504338.264 1460750.434 10 0 59559 27000.00000 0 25419553.904 -713451.710 -1783020.422 10 0 59559 27900.00000 0 24982367.694 -881264.999 -4992085.173 10 0 59559 28800.00000 0 24150053.408 -952258.557 -8103978.322 10 0 59559 29700.00000 0 22951343.254 -875304.070 -11058128.638 10 0 59559 30600.00000 0 21426829.300 -606077.274 -13797046.930 10 0 59559 31500.00000 0 19627307.195 -109180.333 -16267451.923 10 0 59559 32400.00000 0 17611709.417 640117.264 -18421311.613 10 0 59559 33300.00000 0 15444715.537 1654593.915 -20216779.428 10 0 59559 34200.00000 0 13194140.464 2934302.244 -21619006.829 10 0 59559 35100.00000 0 10928210.597 4466339.808 -22600816.862 10 0 59559 36000.00000 0 8712842.093 6225174.290 -23143226.086 10 0 59559 36900.00000 0 6609034.955 8173509.806 -23235805.438 10 0 59559 37800.00000 0 4670491.245 10263658.313 -22876873.886 10 0 59559 38700.00000 0 2941555.855 12439358.954 -22073521.906 10 0 59559 39600.00000 0 1455564.555 14637969.523 -20841465.052 10 0 59559 40500.00000 0 233666.620 16792938.814 -19204731.070 10 0 59559 41400.00000 0 -715830.622 18836457.056 -17195187.010 10 0 59559 42300.00000 0 -1397569.754 20702174.154 -14851915.763 10 0 59559 43200.00000 0 -1828701.183 22327872.806 -12220454.228 10 0 59559 44100.00000 0 -2037911.281 23657985.383 -9351907.811 10 0 59559 45000.00000 0 -2063963.114 24645849.936 -6301958.452 10 0 59559 45900.00000 0 -1953812.441 25255611.593 -3129785.266 10 0 59559 46800.00000 0 -1760379.307 25463690.346 103081.370 10 0 59559 47700.00000 0 -1540069.891 25259754.271 3333950.105 10 0 59559 48600.00000 0 -1350153.583 24647157.888 6500180.313 10 0 59559 49500.00000 0 -1246106.263 23642827.594 9540391.926 10 0 59559 50400.00000 0 -1279031.991 22276599.135 12395650.058 10 0 59559 51300.00000 0 -1493271.962 20590034.856 15010601.839 10 0 59559 52200.00000 0 -1924301.686 18634769.941 17334543.881 10 0 59559 53100.00000 0 -2597005.175 16470456.373 19322400.119 10 0 59559 54000.00000 0 -3524399.294 14162389.815 20935591.720 10 0 59559 54900.00000 0 -4706862.630 11778917.577 22142782.775 10 0 59559 55800.00000 0 -6131902.335 9388734.827 22920487.755 10 0 59559 56700.00000 0 -7774470.116 7058180.638 23253529.328 10 0 59559 57600.00000 0 -9597815.819 4848645.438 23135337.753 10 0 59559 58500.00000 0 -11554844.712 2814196.929 22568085.833 10 0 59559 59400.00000 0 -13589923.597 999522.523 21562656.341 10 0 59559 60300.00000 0 -15641062.114 -561726.619 20138441.789 10 0 59559 61200.00000 0 -17642379.550 -1848121.265 18322979.419 10 0 59559 62100.00000 0 -19526755.255 -2851120.285 16151427.429 10 0 59559 63000.00000 0 -21228552.567 -3575189.689 13665891.442 10 0 59559 63900.00000 0 -22686302.385 -4037369.626 10914613.374 10 0 59559 64800.00000 0 -23845233.741 -4266307.810 7951037.693 10 0 59559 65700.00000 0 -24659544.571 -4300800.381 4832772.780 10 0 59559 66600.00000 0 -25094316.349 -4187902.262 1620467.656 10 0 59559 67500.00000 0 -25126991.057 -3980687.630 -1623373.748 10 0 59559 68400.00000 0 -24748347.265 -3735756.216 -4835616.965 10 0 59559 69300.00000 0 -23962933.326 -3510592.240 -7953735.136 10 0 59559 70200.00000 0 -22788938.795 -3360889.183 -10917035.683 10 0 59559 71100.00000 0 -21257509.099 -3337955.183 -13667850.535 10 0 59559 72000.00000 0 -19411532.334 -3486310.253 -16152665.636 10 0 59559 72900.00000 0 -17303949.374 -3841578.293 -18323166.995 10 0 59559 73800.00000 0 -14995658.709 -4428764.045 -20137182.525 10 0 59559 74700.00000 0 -12553104.378 -5260988.538 -21559501.160 10 0 59559 75600.00000 0 -10045648.451 -6338736.947 -22562553.614 10 0 59559 76500.00000 0 -7542838.108 -7649650.897 -23126942.084 10 0 59559 77400.00000 0 -5111681.526 -9168874.132 -23241809.272 10 0 59559 78300.00000 0 -2814045.758 -10859937.162 -22905040.427 10 0 59559 79200.00000 0 -704284.308 -12676143.918 -22123295.268 10 0 59559 80100.00000 0 1172807.822 -14562402.360 -20911869.921 10 0 59559 81000.00000 0 2783627.892 -16457422.609 -19294392.138 10 0 59559 81900.00000 0 4106921.621 -18296190.879 -17302356.096 10 0 59559 82800.00000 0 5134415.418 -20012615.976 -14974506.111 10 0 59559 83700.00000 0 5870900.207 -21542238.034 -12356081.268 10 0 59559 84600.00000 0 6333765.290 -22824886.571 -9497935.623 10 0 59559 85500.00000 0 6552003.495 -23807176.981 -6455551.007 10 0 59560 0.00000 0 6564731.005 -24444741.325 -3287961.746 10 0 59560 900.00000 0 6419285.336 -24704100.621 -56610.309 10 0 59560 1800.00000 0 6168982.549 -24564099.722 3175839.668 10 0 59560 2700.00000 0 5870628.946 -24016846.043 6346715.786 10 0 59560 3600.00000 0 5581892.517 -23068111.990 9394547.142 10 0 59560 4500.00000 0 5358645.288 -21737184.637 12260250.793 10 0 59560 5400.00000 0 5252388.700 -20056168.707 14888271.512 10 0 59560 6300.00000 0 5307870.608 -18068771.611 17227653.179 10 0 59560 7200.00000 0 5560994.338 -15828620.786 19233021.484 10 0 59560 8100.00000 0 6037108.015 -13397182.795 20865459.524 10 0 59560 9000.00000 0 6749746.551 -10841369.965 22093259.907 10 0 59560 9900.00000 0 7699879.780 -8230933.244 22892539.236 10 0 59560 10800.00000 0 8875699.351 -5635748.603 23247703.454 10 0 59560 11700.00000 0 10252954.600 -3123108.656 23151755.110 10 0 59560 12600.00000 0 11795824.861 -755131.113 22606436.445 10 0 59560 13500.00000 0 13458293.385 1413609.157 21622205.039 10 0 59560 14400.00000 0 15185967.062 3338126.724 20218041.734 10 0 59560 15300.00000 0 16918267.296 4984666.137 18421093.608 10 0 59560 16200.00000 0 18590901.582 6331868.419 16266157.835 10 0 59560 17100.00000 0 20138513.164 7371415.113 13795015.287 10 0 59560 18000.00000 0 21497398.006 8108123.018 11055625.882 10 0 59560 18900.00000 0 22608175.049 8559485.925 8101200.563 10 0 59560 19800.00000 0 23418297.018 8754682.932 4989167.430 10 0 59560 20700.00000 0 23884295.279 8733095.500 1780052.212 10 0 59560 21600.00000 0 23973663.142 8542396.588 -1463704.835 10 0 59560 22500.00000 0 23666297.062 8236293.483 -4678971.911 10 0 59560 23400.00000 0 22955433.807 7872020.935 -7803163.650 10 0 59560 24300.00000 0 21848043.131 7507692.023 -10775468.913 10 0 59560 25200.00000 0 20364658.632 7199620.276 -13538043.376 10 0 59560 26100.00000 0 18538653.505 6999727.759 -16037142.591 10 0 59560 27000.00000 0 16414991.507 6953150.041 -18224172.715 10 0 59560 27900.00000 0 14048505.634 7096140.340 -20056638.022 10 0 59560 28800.00000 0 11501777.004 7454362.125 -21498966.544 10 0 59560 29700.00000 0 8842703.007 8041642.718 -22523198.063 10 0 59560 30600.00000 0 6141856.522 8859240.694 -23109521.579 10 0 59560 31500.00000 0 3469746.526 9895657.894 -23246652.474 10 0 59560 32400.00000 0 894093.963 11127003.913 -22932042.896 10 0 59560 33300.00000 0 -1522764.281 12517897.595 -22171922.096 10 0 59560 34200.00000 0 -3726236.099 14022867.548 -20981166.669 10 0 59560 35100.00000 0 -5671502.662 15588192.866 -19383003.842 10 0 59560 36000.00000 0 -7325131.795 17154106.943 -17408553.974 10 0 59560 36900.00000 0 -8666210.715 18657272.039 -15096221.414 10 0 59560 37800.00000 0 -9686952.818 20033421.130 -12490945.675 10 0 59560 38700.00000 0 -10392755.103 21220056.524 -9643327.341 10 0 59560 39600.00000 0 -10801705.633 22159092.350 -6608645.718 10 0 59560 40500.00000 0 -10943563.414 22799330.372 -3445787.107 10 0 59560 41400.00000 0 -10858255.002 23098665.531 -216104.372 10 0 59560 42300.00000 0 -10593952.197 23025928.818 3017770.102 10 0 59560 43200.00000 0 -10204812.673 22562290.302 6193135.180 10 0 59560 44100.00000 0 -9748479.313 21702163.414 9248432.170 10 0 59560 45000.00000 0 -9283443.957 20453572.466 12124433.080 10 0 59560 45900.00000 0 -8866386.804 18837967.664 14765383.236 10 0 59560 46800.00000 0 -8549603.568 16889494.822 17120076.556 10 0 59560 47700.00000 0 -8378628.659 14653749.659 19142843.072 10 0 59560 48600.00000 0 -8390154.380 12186067.711 20794430.167 10 0 59560 49500.00000 0 -8610333.759 9549420.066 22042761.072 10 0 59560 50400.00000 0 -9053538.603 6812001.371 22863556.315 10 0 59560 51300.00000 0 -9721625.504 4044609.101 23240806.553 10 0 59560 52200.00000 0 -10603741.457 1317921.703 23167087.670 10 0 59560 53100.00000 0 -11676678.369 -1300212.488 22643711.923 10 0 59560 54000.00000 0 -12905762.931 -3747364.043 21680711.761 10 0 59560 54900.00000 0 -14246246.043 -5968882.310 20296655.884 10 0 59560 55800.00000 0 -15645134.946 -7919928.799 18518300.171 10 0 59560 56700.00000 0 -17043392.495 -9567099.923 16380079.172 10 0 59560 57600.00000 0 -18378412.280 -10889571.729 13923446.878 10 0 59560 58500.00000 0 -19586666.172 -11879718.893 11196078.627 10 0 59560 59400.00000 0 -20606413.132 -12543182.251 8250948.843 10 0 59560 60300.00000 0 -21380354.952 -12898382.257 5145302.057 10 0 59560 61200.00000 0 -21858126.263 -12975499.115 1939537.208 10 0 59560 62100.00000 0 -21998512.783 -12814963.154 -1303972.754 10 0 59560 63000.00000 0 -21771302.948 -12465519.918 -4522102.376 10 0 59560 63900.00000 0 -21158693.459 -11981952.713 -7652211.446 10 0 59560 64800.00000 0 -20156188.199 -11422560.148 -10633373.843 10 0 59560 65700.00000 0 -18772951.533 -10846496.665 -13407572.408 10 0 59560 66600.00000 0 -17031600.320 -10311089.893 -15920835.484 10 0 59560 67500.00000 0 -14967442.868 -9869249.507 -18124292.231 10 0 59560 68400.00000 0 -12627196.529 -9567078.114 -19975125.689 10 0 59560 69300.00000 0 -10067237.757 -9441785.819 -21437404.872 10 0 59560 70200.00000 0 -7351457.926 -9519996.893 -22482779.900 10 0 59560 71100.00000 0 -4548814.601 -9816520.053 -23091027.207 10 0 59560 72000.00000 0 -1730680.496 -10333633.986 -23250434.841 10 0 59560 72900.00000 0 1031899.637 -11060917.869 -22958021.251 10 0 59560 73800.00000 0 3670930.516 -11975633.568 -22219584.088 10 0 59560 74700.00000 0 6124053.654 -13043643.021 -21049578.849 10 0 59560 75600.00000 0 8336894.037 -14220821.851 -19470830.302 10 0 59560 76500.00000 0 10265069.859 -15454909.608 -17514082.741 10 0 59560 77400.00000 0 11875783.162 -16687718.739 -15217398.059 10 0 59560 78300.00000 0 13148926.880 -17857609.510 -12625413.460 10 0 59560 79200.00000 0 14077663.901 -18902127.006 -9788473.138 10 0 59560 80100.00000 0 14668455.726 -19760689.546 -6761650.796 10 0 59560 81000.00000 0 14940541.257 -20377215.730 -3603681.816 10 0 59560 81900.00000 0 14924889.154 -20702579.865 -375825.669 10 0 59560 82800.00000 0 14662668.988 -20696792.698 2859319.406 10 0 59560 83700.00000 0 14203306.577 -20330815.832 6039026.582 10 0 59560 84600.00000 0 13602206.022 -19587933.549 9101652.228 10 0 59560 85500.00000 0 12918234.820 -18464624.190 11987825.862 10 0 59561 0.00000 0 12211078.197 -16970894.308 14641595.373 10 0 59561 900.00000 0 11538573.659 -15130060.082 17011507.067 10 0 59561 1800.00000 0 10954138.725 -12977986.413 19051596.550 10 0 59561 2700.00000 0 10504398.566 -10561811.769 20722276.602 10 0 59561 3600.00000 0 10227114.041 -7938212.629 21991101.778 10 0 59561 4500.00000 0 10149496.731 -5171277.756 22833396.888 10 0 59561 5400.00000 0 10286981.923 -2330079.352 23232737.288 10 0 59561 6300.00000 0 10642511.413 513959.466 23181271.866 10 0 59561 7200.00000 0 11206356.898 3289792.871 22679882.280 10 0 59561 8100.00000 0 11956492.260 5929464.199 21738174.969 10 0 59561 9000.00000 0 12859500.231 8370689.962 20374305.380 10 0 59561 9900.00000 0 13871976.571 10559209.284 18614636.873 10 0 59561 10800.00000 0 14942373.901 12450801.632 16493239.861 10 0 59561 11700.00000 0 16013208.701 14012889.051 14051239.748 10 0 59561 12600.00000 0 17023539.231 15225656.115 11336025.382 10 0 59561 13500.00000 0 17911610.366 16082640.830 8400332.563 10 0 59561 14400.00000 0 18617553.637 16590771.790 5301219.944 10 0 59561 15300.00000 0 19086028.015 16769850.144 2098957.199 10 0 59561 16200.00000 0 19268688.949 16651498.546 -1144152.648 10 0 59561 17100.00000 0 19126380.134 16277621.966 -4364993.163 10 0 59561 18000.00000 0 18630954.026 15698446.123 -7500871.956 10 0 59561 18900.00000 0 17766642.790 14970217.460 -10490750.491 10 0 59561 19800.00000 0 16530920.502 14152663.046 -13276441.177 10 0 59561 20700.00000 0 14934819.150 13306319.026 -15803747.338 10 0 59561 21600.00000 0 13002684.274 12489841.688 -18023523.073 10 0 59561 22500.00000 0 10771379.907 11757415.747 -19892631.902 10 0 59561 23400.00000 0 8288975.893 11156369.966 -21374785.293 10 0 59561 24300.00000 0 5612972.401 10725101.095 -22441244.980 10 0 59561 25200.00000 0 2808135.754 10491393.658 -23071375.892 10 0 59561 26100.00000 0 -55964.102 10471206.062 -23253039.578 10 0 59561 27000.00000 0 -2907612.060 10667973.567 -22982821.341 10 0 59561 27900.00000 0 -5675691.997 11072456.720 -22266087.463 10 0 59561 28800.00000 0 -8292402.962 11663140.827 -21116872.183 10 0 59561 29700.00000 0 -10695835.351 12407168.908 -19557597.239 10 0 59561 30600.00000 0 -12832301.106 13261768.264 -17618629.868 10 0 59561 31500.00000 0 -14658322.221 14176110.156 -15337688.123 10 0 59561 32400.00000 0 -16142196.314 15093524.050 -12759105.176 10 0 59561 33300.00000 0 -17265075.639 15953973.121 -9932966.824 10 0 59561 34200.00000 0 -18021516.057 16696686.762 -6914138.949 10 0 59561 35100.00000 0 -18419474.713 17262839.364 -3761203.631 10 0 59561 36000.00000 0 -18479757.987 17598162.629 -535324.439 10 0 59561 36900.00000 0 -18234944.186 17655381.534 2700937.130 10 0 59561 37800.00000 0 -17727827.347 17396371.392 5884831.237 10 0 59561 38700.00000 0 -17009448.348 16793945.147 8954632.020 10 0 59561 39600.00000 0 -16136796.697 15833195.525 11850829.263 10 0 59561 40500.00000 0 -15170279.895 14512335.231 14517276.593 10 0 59561 41400.00000 0 -14171066.848 12842999.272 16902274.419 10 0 59561 42300.00000 0 -13198416.834 10849995.892 18959566.973 10 0 59561 43200.00000 0 -12307105.929 8570515.414 20649234.796 10 0 59561 44100.00000 0 -11545058.622 6052828.646 21938465.919 10 0 59561 45000.00000 0 -10951283.672 3354527.660 22802191.281 10 0 59561 45900.00000 0 -10554200.590 540380.552 23223572.474 10 0 59561 46800.00000 0 -10370426.871 -2320112.335 23194332.552 10 0 59561 47700.00000 0 -10404077.065 -5155360.669 22714923.314 10 0 59561 48600.00000 0 -10646603.473 -7894416.637 21794525.507 10 0 59561 49500.00000 0 -11077185.866 -10469685.458 20450881.167 10 0 59561 50400.00000 0 -11663654.635 -12819502.107 18709960.499 10 0 59561 51300.00000 0 -12363909.486 -14890467.752 16605468.661 10 0 59561 52200.00000 0 -13127774.796 -16639448.974 14178200.885 10 0 59561 53100.00000 0 -13899214.139 -18035156.367 11475257.512 10 0 59561 54000.00000 0 -14618810.958 -19059236.555 8549133.329 10 0 59561 54900.00000 0 -15226410.642 -19706831.760 5456698.399 10 0 59561 55800.00000 0 -15663811.971 -19986583.344 2258090.152 10 0 59561 56700.00000 0 -15877393.313 -19920079.284 -984461.493 10 0 59561 57600.00000 0 -15820561.357 -19540769.151 -4207852.464 10 0 59561 58500.00000 0 -15455917.424 -18892392.859 -7349341.650 10 0 59561 59400.00000 0 -14757048.295 -18026990.340 -10347781.606 10 0 59561 60300.00000 0 -13709864.386 -17002577.181 -13144817.810 10 0 59561 61200.00000 0 -12313427.509 -15880585.484 -15686031.960 10 0 59561 62100.00000 0 -10580232.193 -14723179.141 -17922006.287 10 0 59561 63000.00000 0 -8535927.844 -13590557.786 -19809287.661 10 0 59561 63900.00000 0 -6218492.855 -12538363.895 -21311232.438 10 0 59561 64800.00000 0 -3676894.889 -11615302.696 -22398715.870 10 0 59561 65700.00000 0 -969293.078 -10861075.156 -23050692.698 10 0 59561 66600.00000 0 1839142.858 -10304710.652 -23254598.684 10 0 59561 67500.00000 0 4678705.912 -9963368.795 -23006586.111 10 0 59561 68400.00000 0 7477814.826 -9841659.782 -22311589.479 10 0 59561 69300.00000 0 10165756.480 -9931510.804 -21183220.880 10 0 59561 70200.00000 0 12675394.258 -10212582.943 -19643497.712 10 0 59561 71100.00000 0 14945730.716 -10653220.001 -17722408.452 10 0 59561 72000.00000 0 16924218.884 -11211888.402 -15457325.235 10 0 59561 72900.00000 0 18568727.320 -11839046.855 -12892274.751 10 0 59561 73800.00000 0 19849078.380 -12479366.523 -10077081.604 10 0 59561 74700.00000 0 20748096.898 -13074207.862 -7066400.715 10 0 59561 75600.00000 0 21262126.959 -13564249.553 -3918657.460 10 0 59561 76500.00000 0 21400996.511 -13892158.677 -694915.920 10 0 59561 77400.00000 0 21187432.524 -14005189.518 2542302.808 10 0 59561 78300.00000 0 20655952.337 -13857601.457 5730229.463 10 0 59561 79200.00000 0 19851278.548 -13412793.960 8807059.376 10 0 59561 80100.00000 0 18826344.623 -12645068.570 11713145.698 10 0 59561 81000.00000 0 17639975.301 -11540943.394 14392150.310 10 0 59561 81900.00000 0 16354339.288 -10099964.229 16792130.492 10 0 59561 82800.00000 0 15032281.004 -8334977.464 18866540.697 10 0 59561 83700.00000 0 13734643.020 -6271852.232 20575130.620 10 0 59561 84600.00000 0 12517690.953 -3948662.006 21884722.714 10 0 59561 85500.00000 0 11430748.280 -1414358.308 22769854.582 10 0 59562 0.00000 0 10514139.740 1273009.707 23213274.175 10 0 59562 900.00000 0 9797528.582 4048458.961 23206278.553 10 0 59562 1800.00000 0 9298718.355 6842527.545 22748889.030 10 0 59562 2700.00000 0 9022967.757 9583925.618 21849859.750 10 0 59562 3600.00000 0 8962848.776 12202269.808 20526518.150 10 0 59562 4500.00000 0 9098653.945 14630789.879 18804439.814 10 0 59562 5400.00000 0 9399336.231 16808895.658 16716962.941 10 0 59562 6300.00000 0 9823942.570 18684497.705 14304550.663 10 0 59562 7200.00000 0 10323481.149 20215984.963 11614012.668 10 0 59562 8100.00000 0 10843143.972 21373776.663 8697600.379 10 0 59562 9000.00000 0 11324790.842 22141383.227 5611992.731 10 0 59562 9900.00000 0 11709589.421 22515931.352 2417192.211 10 0 59562 10800.00000 0 11940698.952 22508131.032 -824647.164 10 0 59562 11700.00000 0 11965882.995 22141685.893 -4050436.525 10 0 59562 12600.00000 0 11739939.276 21452171.917 -7197388.823 10 0 59562 13500.00000 0 11226842.305 20485432.342 -10204250.373 10 0 59562 14400.00000 0 10401506.636 19295557.215 -13012502.181 10 0 59562 15300.00000 0 9251094.812 17942533.742 -15567506.540 10 0 59562 16200.00000 0 7775813.500 16489667.585 -17819575.768 10 0 59562 17100.00000 0 5989163.193 15000884.679 -19724941.761 10 0 59562 18000.00000 0 3917630.187 13538028.062 -21246607.203 10 0 59562 18900.00000 0 1599833.134 12158263.914 -22355062.052 10 0 59562 19800.00000 0 -914840.515 10911705.983 -23028851.806 10 0 59562 20700.00000 0 -3568051.394 9839357.928 -23254987.113 10 0 59562 21600.00000 0 -6294702.910 8971459.282 -23029187.602 10 0 59562 22500.00000 0 -9025422.537 8326303.396 -22355955.996 10 0 59562 23400.00000 0 -11689226.730 7909575.721 -21248481.839 10 0 59562 24300.00000 0 -14216259.109 7714238.784 -19728377.357 10 0 59562 25200.00000 0 -16540488.687 7720967.219 -17825251.023 10 0 59562 26100.00000 0 -18602256.635 7899113.267 -15576127.437 10 0 59562 27000.00000 0 -20350566.574 8208160.932 -13024724.901 10 0 59562 27900.00000 0 -21745024.065 8599606.653 -10220604.677 10 0 59562 28800.00000 0 -22757345.495 9019186.566 -7218208.444 10 0 59562 29700.00000 0 -23372374.600 9409355.972 -4075802.486 10 0 59562 30600.00000 0 -23588565.251 9711916.148 -854348.939 10 0 59562 31500.00000 0 -23417911.385 9870677.505 2383673.996 10 0 59562 32400.00000 0 -22885327.989 9834046.651 5575480.184 10 0 59562 33300.00000 0 -22027509.857 9557428.096 8659188.722 10 0 59562 34200.00000 0 -20891316.566 9005339.232 11575018.732 10 0 59562 35100.00000 0 -19531751.755 8153149.160 14266442.922 10 0 59562 36000.00000 0 -18009621.518 6988367.722 16681277.956 10 0 59562 36900.00000 0 -16388969.944 5511429.858 18772690.875 10 0 59562 37800.00000 0 -14734398.889 3735941.380 20500102.686 10 0 59562 38700.00000 0 -13108383.629 1688374.543 21829972.157 10 0 59562 39600.00000 0 -11568696.151 -592775.321 22736445.128 10 0 59562 40500.00000 0 -10166043.142 -3058338.685 23201857.170 10 0 59562 41400.00000 0 -8942016.829 -5650271.875 23217080.051 10 0 59562 42300.00000 0 -7927443.859 -8303835.150 22781705.206 10 0 59562 43200.00000 0 -7141200.922 -10950059.993 21904060.302 10 0 59562 44100.00000 0 -6589546.520 -13518404.586 20601057.923 10 0 59562 45000.00000 0 -6265996.933 -15939488.196 18897878.429 10 0 59562 45900.00000 0 -6151751.734 -18147791.590 16827492.069 10 0 59562 46800.00000 0 -6216651.228 -20084211.478 14430028.543 10 0 59562 47700.00000 0 -6420625.790 -21698362.485 11752005.220 10 0 59562 48600.00000 0 -6715576.130 -22950530.312 8845428.191 10 0 59562 49500.00000 0 -7047605.054 -23813193.922 5766783.032 10 0 59562 50400.00000 0 -7359506.075 -24272052.379 2575934.829 10 0 59562 51300.00000 0 -7593402.883 -24326512.754 -665040.959 10 0 59562 52200.00000 0 -7693426.975 -23989618.228 -3893073.507 10 0 59562 53100.00000 0 -7608318.786 -23287419.280 -7045332.820 10 0 59562 54000.00000 0 -7293840.720 -22257814.631 -10060462.091 10 0 59562 54900.00000 0 -6714898.414 -20948911.242 -12879781.053 10 0 59562 55800.00000 0 -5847279.029 -19416973.148 -15448435.794 10 0 59562 56700.00000 0 -4678931.762 -17724046.420 -17716471.833 10 0 59562 57600.00000 0 -3210735.344 -15935361.054 -19639809.005 10 0 59562 58500.00000 0 -1456719.285 -14116619.902 -21181098.912 10 0 59562 59400.00000 0 556271.179 -12331289.072 -22310448.398 10 0 59562 60300.00000 0 2789452.965 -10638003.754 -23005995.416 10 0 59562 61200.00000 0 5193489.407 -9088198.113 -23254326.690 10 0 59562 62100.00000 0 7710323.377 -7724057.974 -23050729.865 10 0 59562 63000.00000 0 10275383.080 -6576881.026 -22399276.069 10 0 59562 63900.00000 0 12820068.781 -5665911.977 -21312732.030 10 0 59562 64800.00000 0 15274417.321 -4997699.821 -19812304.101 10 0 59562 65700.00000 0 17569833.981 -4566002.519 -17927219.640 10 0 59562 66600.00000 0 19641778.454 -4352241.429 -15694154.175 10 0 59562 67500.00000 0 21432293.826 -4326484.788 -13156515.634 10 0 59562 68400.00000 0 22892273.970 -4448917.567 -10363599.514 10 0 59562 69300.00000 0 23983375.587 -4671734.697 -7369631.394 10 0 59562 70200.00000 0 24679496.029 -4941377.034 -4232715.226 10 0 59562 71100.00000 0 24967756.046 -5201015.190 -1013707.685 10 0 59562 72000.00000 0 24848947.176 -5393176.032 2224959.620 10 0 59562 72900.00000 0 24337425.865 -5462400.762 5420487.402 10 0 59562 73800.00000 0 23460459.375 -5357822.247 8510922.146 10 0 59562 74700.00000 0 22257051.358 -5035552.716 11436352.327 10 0 59562 75600.00000 0 20776296.576 -4460780.959 14140064.546 10 0 59562 76500.00000 0 19075333.703 -3609490.304 16569637.517 10 0 59562 77400.00000 0 17216981.769 -2469724.586 18677953.128 10 0 59562 78300.00000 0 15267158.710 -1042348.071 20424105.523 10 0 59562 79200.00000 0 13292189.361 658733.632 21774191.196 10 0 59562 80100.00000 0 11356114.681 2606902.296 22701965.216 10 0 59562 81000.00000 0 9518113.771 4763693.319 23189351.350 10 0 59562 81900.00000 0 7830145.454 7080165.188 23226796.349 10 0 59562 82800.00000 0 6334907.201 9498716.861 22813461.497 10 0 59562 83700.00000 0 5064195.972 11955279.246 21957247.384 10 0 59562 84600.00000 0 4037738.967 14381791.217 20674650.755 10 0 59562 85500.00000 0 3262542.984 16708858.401 18990455.385 99